Location: Unspecified
(0.0000°N, 0.0000°E)
Time: 16:29:11
(UTC+00:00)

Courier 1B Rocket - Pass Details

Date: 15 April 2021
Orbit: 920 x 1202 km, 28.3° (Epoch: 14 May)

Event Time Altitude Azimuth Distance (km) Brightness Sun altitude
Exits shadow 04:49:42 - 310° (NW) 3,339 7.4 -17.3°
Reaches altitude 10° 04:50:26 10° 311° (NW) 3,096 7.3 -17.1°
Maximum altitude 04:58:01 61° 30° (NNE) 1,278 5.8 -15.3°
Drops below altitude 10° 05:05:11 10° 109° (ESE) 2,931 8.5 -13.5°
Sets 05:07:53 0° 112° (ESE) 3,846 9.2 -12.9°
